Time,TemperatureF,DewpointF,PressureIn,WindDirection,WindDirectionDegrees,WindSpeedMPH,WindSpeedGustMPH,Humidity,HourlyPrecipIn,Conditions,Clouds,dailyrainin,SoftwareType,DateUTC
2013-02-20 00:00:00,45.3,32.0,30.30,NNW,339,0.0,0.0,63,0.00,NA,NA,-99.99,,2013-02-20 05:00:00,
2013-02-20 00:10:00,43.7,32.0,30.30,NNW,339,0.0,0.0,61,0.00,NA,NA,-99.99,,2013-02-20 05:10:00,
2013-02-20 00:15:00,43.7,32.0,30.30,NNW,339,0.0,0.0,61,0.00,NA,NA,-99.99,,2013-02-20 05:15:00,
2013-02-20 00:20:00,42.8,32.0,30.30,NNW,339,0.0,0.0,61,0.00,NA,NA,-99.99,,2013-02-20 05:20:00,
2013-02-20 00:30:00,42.1,32.0,30.30,NNW,339,0.0,0.0,62,0.00,NA,NA,-99.99,,2013-02-20 05:30:00,
2013-02-20 00:35:00,41.7,32.0,30.27,NNW,339,0.0,0.0,62,0.00,NA,NA,-99.99,,2013-02-20 05:35:00,
2013-02-20 00:45:00,41.9,32.0,30.27,NNW,339,0.0,0.0,64,0.00,NA,NA,-99.99,,2013-02-20 05:45:00,
2013-02-20 00:55:00,41.2,32.0,30.30,NNW,339,0.0,0.0,63,0.00,NA,NA,-99.99,,2013-02-20 05:55:00,
2013-02-20 01:05:00,42.1,32.0,30.30,NNW,339,0.0,0.0,66,0.00,NA,NA,-99.99,,2013-02-20 06:05:00,
2013-02-20 01:15:00,43.0,32.0,30.30,NNW,339,0.0,0.0,66,0.00,NA,NA,-99.99,,2013-02-20 06:15:00,
2013-02-20 01:25:00,43.0,32.0,30.30,NNW,339,0.0,0.0,65,0.00,NA,NA,-99.99,,2013-02-20 06:25:00,
2013-02-20 01:30:00,42.4,32.0,30.30,NNW,339,0.0,0.0,65,0.00,NA,NA,-99.99,,2013-02-20 06:30:00,
2013-02-20 01:40:00,42.6,32.0,30.30,NNW,339,0.0,0.0,65,0.00,NA,NA,-99.99,,2013-02-20 06:40:00,
2013-02-20 01:50:00,41.9,32.0,30.30,NNW,339,0.0,0.0,65,0.00,NA,NA,-99.99,,2013-02-20 06:50:00,
2013-02-20 02:00:00,41.9,32.0,30.30,NNW,339,0.0,0.0,66,0.00,NA,NA,-99.99,,2013-02-20 07:00:00,
2013-02-20 02:05:00,41.5,32.0,30.30,NNW,339,0.0,0.0,65,0.00,NA,NA,-99.99,,2013-02-20 07:05:00,
2013-02-20 02:15:00,41.4,32.0,30.30,NNW,338,0.0,0.0,66,0.00,NA,NA,-99.99,,2013-02-20 07:15:00,
2013-02-20 02:20:00,41.4,32.0,30.30,NNE,19,0.0,0.0,66,0.00,NA,NA,-99.99,,2013-02-20 07:20:00,
2013-02-20 02:30:00,41.0,32.0,30.30,North,9,0.0,0.0,66,0.00,NA,NA,-99.99,,2013-02-20 07:30:00,
2013-02-20 02:40:00,40.6,32.0,30.30,NNE,25,0.0,0.0,66,0.00,NA,NA,-99.99,,2013-02-20 07:40:00,
2013-02-20 02:50:00,40.5,32.0,30.30,NNE,25,0.0,0.0,66,0.00,NA,NA,-99.99,,2013-02-20 07:50:00,
2013-02-20 03:00:00,40.3,32.0,30.30,NNE,25,0.0,0.0,66,0.00,NA,NA,-99.99,,2013-02-20 08:00:00,
2013-02-20 03:05:00,39.9,32.0,30.30,NNE,25,0.0,0.0,65,0.00,NA,NA,-99.99,,2013-02-20 08:05:00,
2013-02-20 03:10:00,39.4,32.0,30.30,NNE,25,0.0,0.0,65,0.00,NA,NA,-99.99,,2013-02-20 08:10:00,
2013-02-20 03:15:00,38.8,32.0,30.30,NNE,25,0.0,0.0,65,0.00,NA,NA,-99.99,,2013-02-20 08:15:00,
2013-02-20 03:25:00,38.1,32.0,30.30,NNE,25,0.0,0.0,64,0.00,NA,NA,-99.99,,2013-02-20 08:25:00,
2013-02-20 03:35:00,38.1,32.0,30.30,NNE,25,0.0,0.0,66,0.00,NA,NA,-99.99,,2013-02-20 08:35:00,
2013-02-20 03:45:00,38.7,32.0,30.30,NNE,25,0.0,0.0,67,0.00,NA,NA,-99.99,,2013-02-20 08:45:00,
2013-02-20 03:50:00,37.4,32.0,30.30,NNE,25,0.0,0.0,63,0.00,NA,NA,-99.99,,2013-02-20 08:50:00,
2013-02-20 03:55:00,37.2,32.0,30.30,NNE,25,0.0,0.0,65,0.00,NA,NA,-99.99,,2013-02-20 08:55:00,
2013-02-20 04:05:00,37.2,32.0,30.30,NNE,25,0.0,0.0,66,0.00,NA,NA,-99.99,,2013-02-20 09:05:00,
2013-02-20 04:10:00,36.9,32.0,30.30,NNE,25,0.0,0.0,64,0.00,NA,NA,-99.99,,2013-02-20 09:10:00,
2013-02-20 04:15:00,36.7,32.0,30.30,NNE,25,0.0,0.0,65,0.00,NA,NA,-99.99,,2013-02-20 09:15:00,
2013-02-20 04:25:00,37.4,32.0,30.30,NNE,25,0.0,0.0,66,0.00,NA,NA,-99.99,,2013-02-20 09:25:00,
2013-02-20 04:30:00,37.4,32.0,30.30,NNE,25,0.0,0.0,66,0.00,NA,NA,-99.99,,2013-02-20 09:30:00,
2013-02-20 04:40:00,36.7,32.0,30.33,NNE,25,0.0,0.0,64,0.00,NA,NA,-99.99,,2013-02-20 09:40:00,
2013-02-20 04:50:00,36.3,32.0,30.33,NNE,25,0.0,0.0,64,0.00,NA,NA,-99.99,,2013-02-20 09:50:00,
2013-02-20 05:00:00,36.0,32.0,30.33,NNE,25,0.0,0.0,65,0.00,NA,NA,-99.99,,2013-02-20 10:00:00,
2013-02-20 05:10:00,35.6,32.0,30.33,NNE,25,0.0,0.0,64,0.00,NA,NA,-99.99,,2013-02-20 10:10:00,
2013-02-20 05:20:00,35.2,32.0,30.36,NNE,25,0.0,0.0,65,0.00,NA,NA,-99.99,,2013-02-20 10:20:00,
2013-02-20 05:25:00,35.6,32.0,30.36,NNE,25,0.0,0.0,66,0.00,NA,NA,-99.99,,2013-02-20 10:25:00,
2013-02-20 05:35:00,35.8,32.0,30.36,NNE,25,0.0,0.0,65,0.00,NA,NA,-99.99,,2013-02-20 10:35:00,
2013-02-20 05:45:00,35.6,32.0,30.36,NNE,25,0.0,0.0,65,0.00,NA,NA,-99.99,,2013-02-20 10:45:00,
2013-02-20 05:55:00,35.6,32.0,30.36,NNE,25,0.0,0.0,65,0.00,NA,NA,-99.99,,2013-02-20 10:55:00,
2013-02-20 06:00:00,35.6,32.0,30.36,NNE,25,0.0,0.0,66,0.00,NA,NA,-99.99,,2013-02-20 11:00:00,
2013-02-20 06:05:00,35.6,32.0,30.36,NNE,25,0.0,0.0,66,0.00,NA,NA,-99.99,,2013-02-20 11:05:00,
2013-02-20 06:15:00,34.9,32.0,30.36,NNE,25,0.0,0.0,65,0.00,NA,NA,-99.99,,2013-02-20 11:15:00,
2013-02-20 06:25:00,34.5,32.0,30.36,NNE,25,0.0,0.0,65,0.00,NA,NA,-99.99,,2013-02-20 11:25:00,
2013-02-20 06:30:00,34.0,32.0,30.36,NNE,25,0.0,0.0,64,0.00,NA,NA,-99.99,,2013-02-20 11:30:00,
2013-02-20 06:35:00,34.0,32.0,30.36,NNE,25,0.0,0.0,65,0.00,NA,NA,-99.99,,2013-02-20 11:35:00,
2013-02-20 06:45:00,34.0,32.0,30.36,NNE,25,0.0,0.0,66,0.00,NA,NA,-99.99,,2013-02-20 11:45:00,
2013-02-20 06:55:00,34.0,32.0,30.36,NNE,25,0.0,0.0,67,0.00,NA,NA,-99.99,,2013-02-20 11:55:00,
2013-02-20 07:00:00,34.3,32.0,30.36,NNE,25,0.0,0.0,67,0.00,NA,NA,-99.99,,2013-02-20 12:00:00,
2013-02-20 07:05:00,34.5,32.0,30.33,NNE,25,0.0,0.0,68,0.00,NA,NA,-99.99,,2013-02-20 12:05:00,
2013-02-20 07:10:00,34.5,32.0,30.33,NNE,25,0.0,0.0,67,0.00,NA,NA,-99.99,,2013-02-20 12:10:00,
2013-02-20 07:20:00,34.9,32.0,30.36,NNE,25,0.0,0.0,68,0.00,NA,NA,-99.99,,2013-02-20 12:20:00,
2013-02-20 07:25:00,34.9,32.0,30.36,NNE,25,0.0,0.0,67,0.00,NA,NA,-99.99,,2013-02-20 12:25:00,
2013-02-20 07:30:00,34.5,32.0,30.36,NNE,25,0.0,0.0,66,0.00,NA,NA,-99.99,,2013-02-20 12:30:00,
2013-02-20 07:40:00,34.3,32.0,30.36,NNE,25,0.0,0.0,66,0.00,NA,NA,-99.99,,2013-02-20 12:40:00,
2013-02-20 07:50:00,34.2,32.0,30.36,NNE,25,0.0,0.0,66,0.00,NA,NA,-99.99,,2013-02-20 12:50:00,
2013-02-20 08:00:00,35.1,32.0,30.36,NNE,25,0.0,0.0,68,0.00,NA,NA,-99.99,,2013-02-20 13:00:00,
2013-02-20 08:05:00,36.1,32.0,30.36,NNE,25,0.0,0.0,68,0.00,NA,NA,-99.99,,2013-02-20 13:05:00,
2013-02-20 08:15:00,38.1,32.0,30.36,North,0,0.0,0.0,69,0.00,NA,NA,-99.99,,2013-02-20 13:15:00,
2013-02-20 08:20:00,38.8,32.0,30.36,North,357,0.0,0.0,69,0.00,NA,NA,-99.99,,2013-02-20 13:20:00,
2013-02-20 08:25:00,39.2,32.0,30.36,North,3,0.0,3.2,68,0.00,NA,NA,-99.99,,2013-02-20 13:25:00,
2013-02-20 08:30:00,40.5,32.0,30.36,North,3,0.0,0.0,69,0.00,NA,NA,-99.99,,2013-02-20 13:30:00,
2013-02-20 08:40:00,42.3,32.0,30.36,North,357,0.0,0.0,59,0.00,NA,NA,-99.99,,2013-02-20 13:40:00,
2013-02-20 08:45:00,43.2,32.0,30.36,North,11,0.0,2.2,52,0.00,NA,NA,-99.99,,2013-02-20 13:45:00,
2013-02-20 08:50:00,44.1,32.0,30.36,NNE,17,3.2,3.6,42,0.00,NA,NA,-99.99,,2013-02-20 13:50:00,
2013-02-20 09:00:00,45.3,32.0,30.36,NNE,14,2.7,3.2,33,0.00,NA,NA,-99.99,,2013-02-20 14:00:00,
2013-02-20 09:05:00,45.7,32.0,30.39,NNW,332,3.2,3.2,30,0.00,NA,NA,-99.99,,2013-02-20 14:05:00,
2013-02-20 09:15:00,46.0,32.0,30.39,ENE,67,3.6,5.4,28,0.00,NA,NA,-99.99,,2013-02-20 14:15:00,
2013-02-20 09:25:00,46.6,32.0,30.39,NNW,346,4.9,4.9,27,0.00,NA,NA,-99.99,,2013-02-20 14:25:00,
2013-02-20 09:30:00,46.4,32.0,30.39,NNE,29,4.1,5.4,22,0.00,NA,NA,-99.99,,2013-02-20 14:30:00,
2013-02-20 09:40:00,47.1,32.0,30.39,North,0,5.8,5.8,19,0.00,NA,NA,-99.99,,2013-02-20 14:40:00,
2013-02-20 09:50:00,47.7,32.0,30.36,ENE,58,3.6,3.6,17,0.00,NA,NA,-99.99,,2013-02-20 14:50:00,
2013-02-20 10:00:00,48.0,32.0,30.36,NNW,335,3.2,3.6,17,0.00,NA,NA,-99.99,,2013-02-20 15:00:00,
2013-02-20 10:05:00,48.6,32.0,30.36,North,0,6.3,6.3,14,0.00,NA,NA,-99.99,,2013-02-20 15:05:00,
2013-02-20 10:10:00,48.6,32.0,30.36,NE,48,4.9,6.3,14,0.00,NA,NA,-99.99,,2013-02-20 15:10:00,
2013-02-20 10:15:00,48.7,32.0,30.36,NNE,28,5.4,5.4,14,0.00,NA,NA,-99.99,,2013-02-20 15:15:00,
2013-02-20 10:25:00,49.1,32.0,30.36,NNE,32,5.4,6.3,14,0.00,NA,NA,-99.99,,2013-02-20 15:25:00,
2013-02-20 10:30:00,49.6,32.0,30.36,NE,52,5.4,5.4,11,0.00,NA,NA,-99.99,,2013-02-20 15:30:00,
2013-02-20 10:40:00,50.7,32.0,30.36,ENE,75,3.6,6.8,14,0.00,NA,NA,-99.99,,2013-02-20 15:40:00,
2013-02-20 10:45:00,50.9,32.0,30.36,NNE,28,2.7,2.7,11,0.00,NA,NA,-99.99,,2013-02-20 15:45:00,
2013-02-20 10:55:00,52.0,32.0,30.36,North,357,4.9,4.9,11,0.00,NA,NA,-99.99,,2013-02-20 15:55:00,
2013-02-20 11:00:00,52.3,32.0,30.36,North,2,4.9,6.3,11,0.00,NA,NA,-99.99,,2013-02-20 16:00:00,
2013-02-20 11:10:00,52.3,32.0,30.36,NE,40,3.2,3.2,11,0.00,NA,NA,-99.99,,2013-02-20 16:10:00,
2013-02-20 11:20:00,54.3,32.0,30.33,NNE,16,4.5,5.4,10,0.00,NA,NA,-99.99,,2013-02-20 16:20:00,
2013-02-20 11:25:00,54.5,32.0,30.33,ENE,57,3.2,4.1,10,0.00,NA,NA,-99.99,,2013-02-20 16:25:00,
2013-02-20 11:35:00,54.9,32.0,30.33,North,353,4.1,4.1,10,0.00,NA,NA,-99.99,,2013-02-20 16:35:00,
2013-02-20 11:45:00,56.3,32.0,30.33,North,3,4.5,4.5,10,0.00,NA,NA,-99.99,,2013-02-20 16:45:00,
2013-02-20 11:50:00,56.7,32.0,30.36,ENE,70,3.2,0.0,10,0.00,NA,NA,-99.99,,2013-02-20 16:50:00,
2013-02-20 12:00:00,57.0,32.0,30.36,ESE,122,4.1,4.1,10,0.00,NA,NA,-99.99,,2013-02-20 17:00:00,
2013-02-20 12:10:00,57.4,32.0,30.36,West,267,0.0,3.6,9,0.00,NA,NA,-99.99,,2013-02-20 17:10:00,
2013-02-20 12:20:00,58.1,32.0,30.33,ESE,116,4.1,4.1,9,0.00,NA,NA,-99.99,,2013-02-20 17:20:00,
2013-02-20 12:25:00,58.6,32.0,30.33,NNW,344,2.7,5.8,9,0.00,NA,NA,-99.99,,2013-02-20 17:25:00,
2013-02-20 12:35:00,59.0,32.0,30.33,East,85,2.7,3.2,9,0.00,NA,NA,-99.99,,2013-02-20 17:35:00,
2013-02-20 12:45:00,58.8,32.0,30.33,ENE,71,2.2,3.2,9,0.00,NA,NA,-99.99,,2013-02-20 17:45:00,
2013-02-20 12:50:00,59.2,32.0,30.33,ENE,63,2.2,0.0,9,0.00,NA,NA,-99.99,,2013-02-20 17:50:00,
2013-02-20 13:00:00,60.1,32.0,30.33,West,267,0.0,3.6,9,0.00,NA,NA,-99.99,,2013-02-20 18:00:00,
2013-02-20 13:05:00,60.6,32.0,30.33,South,189,3.6,3.6,9,0.00,NA,NA,-99.99,,2013-02-20 18:05:00,
2013-02-20 13:10:00,60.8,32.0,30.33,North,0,3.6,3.6,9,0.00,NA,NA,-99.99,,2013-02-20 18:10:00,
2013-02-20 13:20:00,60.6,32.0,30.33,NW,314,4.1,4.1,9,0.00,NA,NA,-99.99,,2013-02-20 18:20:00,
2013-02-20 13:30:00,61.2,32.0,30.33,ENE,76,4.1,4.1,9,0.00,NA,NA,-99.99,,2013-02-20 18:30:00,
2013-02-20 13:35:00,61.2,32.0,30.30,NE,38,2.2,2.2,9,0.00,NA,NA,-99.99,,2013-02-20 18:35:00,
2013-02-20 13:45:00,61.7,32.0,30.30,ENE,78,3.6,3.6,9,0.00,NA,NA,-99.99,,2013-02-20 18:45:00,
2013-02-20 13:55:00,62.4,32.0,30.30,North,357,3.2,7.2,9,0.00,NA,NA,-99.99,,2013-02-20 18:55:00,
2013-02-20 14:05:00,62.4,32.0,30.30,West,281,3.2,3.2,9,0.00,NA,NA,-99.99,,2013-02-20 19:05:00,
2013-02-20 14:10:00,62.2,32.0,30.30,WSW,249,0.0,0.0,9,0.00,NA,NA,-99.99,,2013-02-20 19:10:00,
2013-02-20 14:20:00,62.6,32.0,30.30,NNW,340,4.5,4.5,8,0.00,NA,NA,-99.99,,2013-02-20 19:20:00,
2013-02-20 14:25:00,62.4,32.0,30.30,WNW,302,0.0,3.2,9,0.00,NA,NA,-99.99,,2013-02-20 19:25:00,
2013-02-20 14:35:00,62.1,32.0,30.30,NNW,332,3.6,3.6,9,0.00,NA,NA,-99.99,,2013-02-20 19:35:00,
2013-02-20 14:40:00,62.1,32.0,30.30,WNW,286,3.2,4.9,9,0.00,NA,NA,-99.99,,2013-02-20 19:40:00,
2013-02-20 14:50:00,61.9,32.0,30.30,West,273,0.0,3.2,9,0.00,NA,NA,-99.99,,2013-02-20 19:50:00,
2013-02-20 14:55:00,62.1,32.0,30.30,North,353,4.5,4.5,9,0.00,NA,NA,-99.99,,2013-02-20 19:55:00,
2013-02-20 15:05:00,62.4,32.0,30.30,West,267,6.3,7.7,9,0.00,NA,NA,-99.99,,2013-02-20 20:05:00,
2013-02-20 15:15:00,61.7,32.0,30.30,North,357,3.2,3.2,9,0.00,NA,NA,-99.99,,2013-02-20 20:15:00,
2013-02-20 15:20:00,61.7,32.0,30.30,WNW,292,5.8,5.8,9,0.00,NA,NA,-99.99,,2013-02-20 20:20:00,
2013-02-20 15:30:00,61.7,32.0,30.30,NNW,344,2.7,3.6,9,0.00,NA,NA,-99.99,,2013-02-20 20:30:00,
2013-02-20 15:40:00,62.2,32.0,30.27,ENE,62,2.7,3.6,9,0.00,NA,NA,-99.99,,2013-02-20 20:40:00,
2013-02-20 15:45:00,62.4,32.0,30.27,NNW,346,3.6,5.4,9,0.00,NA,NA,-99.99,,2013-02-20 20:45:00,
2013-02-20 15:55:00,63.0,32.0,30.27,North,357,4.1,4.1,8,0.00,NA,NA,-99.99,,2013-02-20 20:55:00,
2013-02-20 16:05:00,63.0,32.0,30.27,North,357,4.9,8.1,8,0.00,NA,NA,-99.99,,2013-02-20 21:05:00,
2013-02-20 16:15:00,62.2,32.0,30.27,North,357,3.2,3.2,9,0.00,NA,NA,-99.99,,2013-02-20 21:15:00,
2013-02-20 16:25:00,62.4,32.0,30.27,North,0,3.6,4.9,9,0.00,NA,NA,-99.99,,2013-02-20 21:25:00,
2013-02-20 16:30:00,62.2,32.0,30.27,WNW,286,4.1,4.1,9,0.00,NA,NA,-99.99,,2013-02-20 21:30:00,
2013-02-20 16:35:00,62.1,32.0,30.27,North,357,4.5,4.5,9,0.00,NA,NA,-99.99,,2013-02-20 21:35:00,
2013-02-20 16:40:00,61.7,32.0,30.27,NNW,340,4.5,4.5,9,0.00,NA,NA,-99.99,,2013-02-20 21:40:00,
2013-02-20 16:45:00,61.5,32.0,30.27,North,357,0.0,3.2,9,0.00,NA,NA,-99.99,,2013-02-20 21:45:00,
2013-02-20 16:55:00,61.3,32.0,30.27,NNW,334,0.0,0.0,9,0.00,NA,NA,-99.99,,2013-02-20 21:55:00,
2013-02-20 17:00:00,61.3,32.0,30.27,North,9,3.6,3.6,9,0.00,NA,NA,-99.99,,2013-02-20 22:00:00,
2013-02-20 17:05:00,61.3,32.0,30.27,NNW,332,2.2,2.2,9,0.00,NA,NA,-99.99,,2013-02-20 22:05:00,
2013-02-20 17:15:00,61.7,32.0,30.27,NW,321,3.2,5.4,9,0.00,NA,NA,-99.99,,2013-02-20 22:15:00,
2013-02-20 17:20:00,61.3,32.0,30.30,NNW,344,2.2,2.7,9,0.00,NA,NA,-99.99,,2013-02-20 22:20:00,
2013-02-20 17:30:00,60.4,32.0,30.30,NNW,329,2.7,2.7,9,0.00,NA,NA,-99.99,,2013-02-20 22:30:00,
2013-02-20 17:40:00,59.7,32.0,30.30,WNW,288,2.7,3.6,9,0.00,NA,NA,-99.99,,2013-02-20 22:40:00,
2013-02-20 17:45:00,59.5,32.0,30.30,North,349,0.0,2.7,9,0.00,NA,NA,-99.99,,2013-02-20 22:45:00,
2013-02-20 17:50:00,59.0,32.0,30.30,North,357,2.2,2.7,9,0.00,NA,NA,-99.99,,2013-02-20 22:50:00,
2013-02-20 18:00:00,58.3,32.0,30.30,NNW,340,0.0,0.0,9,0.00,NA,NA,-99.99,,2013-02-20 23:00:00,
2013-02-20 18:05:00,57.7,32.0,30.30,NNW,340,0.0,0.0,9,0.00,NA,NA,-99.99,,2013-02-20 23:05:00,
2013-02-20 18:10:00,57.4,32.0,30.30,NNW,340,0.0,0.0,9,0.00,NA,NA,-99.99,,2013-02-20 23:10:00,
2013-02-20 18:20:00,55.8,32.0,30.30,NNW,340,0.0,0.0,10,0.00,NA,NA,-99.99,,2013-02-20 23:20:00,
2013-02-20 18:25:00,54.9,32.0,30.30,NNW,340,0.0,0.0,10,0.00,NA,NA,-99.99,,2013-02-20 23:25:00,
2013-02-20 18:35:00,53.4,32.0,30.27,NNW,340,0.0,0.0,11,0.00,NA,NA,-99.99,,2013-02-20 23:35:00,
2013-02-20 18:45:00,50.9,32.0,30.27,NNW,340,0.0,0.0,11,0.00,NA,NA,-99.99,,2013-02-20 23:45:00,
2013-02-20 18:50:00,50.5,32.0,30.30,NNW,340,0.0,0.0,11,0.00,NA,NA,-99.99,,2013-02-20 23:50:00,
2013-02-20 19:00:00,50.2,32.0,30.30,NNW,340,0.0,0.0,11,0.00,NA,NA,-99.99,,2013-02-21 00:00:00,
2013-02-20 19:05:00,50.0,32.0,30.30,NNW,340,0.0,0.0,14,0.00,NA,NA,-99.99,,2013-02-21 00:05:00,
2013-02-20 19:15:00,49.3,32.0,30.30,NNW,340,0.0,0.0,14,0.00,NA,NA,-99.99,,2013-02-21 00:15:00,
2013-02-20 19:20:00,48.7,32.0,30.30,NNW,340,0.0,0.0,14,0.00,NA,NA,-99.99,,2013-02-21 00:20:00,
2013-02-20 19:25:00,47.3,32.0,30.30,NNW,340,0.0,0.0,14,0.00,NA,NA,-99.99,,2013-02-21 00:25:00,
2013-02-20 19:30:00,46.8,32.0,30.30,NNW,340,0.0,0.0,17,0.00,NA,NA,-99.99,,2013-02-21 00:30:00,
2013-02-20 19:35:00,46.0,32.0,30.30,NNW,344,0.0,2.2,17,0.00,NA,NA,-99.99,,2013-02-21 00:35:00,
2013-02-20 19:45:00,45.7,32.0,30.30,NNW,341,0.0,0.0,20,0.00,NA,NA,-99.99,,2013-02-21 00:45:00,
2013-02-20 19:50:00,45.7,32.0,30.30,NNW,341,0.0,0.0,22,0.00,NA,NA,-99.99,,2013-02-21 00:50:00,
2013-02-20 20:00:00,46.0,32.0,30.30,NNW,341,0.0,0.0,25,0.00,NA,NA,-99.99,,2013-02-21 01:00:00,
2013-02-20 20:10:00,46.0,32.0,30.33,NNW,341,0.0,0.0,27,0.00,NA,NA,-99.99,,2013-02-21 01:10:00,
2013-02-20 20:20:00,44.2,32.0,30.30,NNW,341,0.0,0.0,28,0.00,NA,NA,-99.99,,2013-02-21 01:20:00,
2013-02-20 20:25:00,43.5,32.0,30.30,NNW,341,0.0,0.0,28,0.00,NA,NA,-99.99,,2013-02-21 01:25:00,
2013-02-20 20:30:00,43.0,32.0,30.30,NNW,341,0.0,0.0,28,0.00,NA,NA,-99.99,,2013-02-21 01:30:00,
2013-02-20 20:35:00,42.4,32.0,30.30,NNW,341,0.0,0.0,29,0.00,NA,NA,-99.99,,2013-02-21 01:35:00,
2013-02-20 20:45:00,42.1,32.0,30.30,NNW,341,0.0,0.0,30,0.00,NA,NA,-99.99,,2013-02-21 01:45:00,
2013-02-20 20:50:00,41.7,32.0,30.30,NNW,341,0.0,0.0,31,0.00,NA,NA,-99.99,,2013-02-21 01:50:00,
2013-02-20 21:00:00,41.0,32.0,30.30,NNW,341,0.0,0.0,32,0.00,NA,NA,-99.99,,2013-02-21 02:00:00,
2013-02-20 21:05:00,40.8,32.0,30.30,NNW,341,0.0,0.0,33,0.00,NA,NA,-99.99,,2013-02-21 02:05:00,
2013-02-20 21:10:00,40.5,32.0,30.30,NNW,341,0.0,0.0,33,0.00,NA,NA,-99.99,,2013-02-21 02:10:00,
2013-02-20 21:20:00,39.9,32.0,30.27,NNW,341,0.0,0.0,35,0.00,NA,NA,-99.99,,2013-02-21 02:20:00,
2013-02-20 21:30:00,39.9,32.0,30.27,NNW,341,0.0,0.0,37,0.00,NA,NA,-99.99,,2013-02-21 02:30:00,
2013-02-20 21:35:00,39.7,32.0,30.30,NNW,341,0.0,0.0,38,0.00,NA,NA,-99.99,,2013-02-21 02:35:00,
2013-02-20 21:40:00,39.4,32.0,30.30,NNW,341,0.0,0.0,38,0.00,NA,NA,-99.99,,2013-02-21 02:40:00,
2013-02-20 21:45:00,39.0,32.0,30.30,NNW,341,0.0,0.0,39,0.00,NA,NA,-99.99,,2013-02-21 02:45:00,
2013-02-20 21:50:00,38.8,32.0,30.30,NNW,341,0.0,0.0,39,0.00,NA,NA,-99.99,,2013-02-21 02:50:00,
2013-02-20 22:00:00,38.8,32.0,30.30,NNW,341,0.0,0.0,40,0.00,NA,NA,-99.99,,2013-02-21 03:00:00,
2013-02-20 22:05:00,38.8,32.0,30.30,NNW,341,0.0,0.0,40,0.00,NA,NA,-99.99,,2013-02-21 03:05:00,
2013-02-20 22:15:00,39.4,32.0,30.30,NNW,341,0.0,0.0,40,0.00,NA,NA,-99.99,,2013-02-21 03:15:00,
2013-02-20 22:20:00,39.0,32.0,30.30,NNW,341,0.0,0.0,40,0.00,NA,NA,-99.99,,2013-02-21 03:20:00,
2013-02-20 22:30:00,39.0,32.0,30.30,NNW,341,0.0,0.0,41,0.00,NA,NA,-99.99,,2013-02-21 03:30:00,
2013-02-20 22:40:00,38.5,32.0,30.30,NNW,341,0.0,0.0,41,0.00,NA,NA,-99.99,,2013-02-21 03:40:00,
2013-02-20 22:50:00,38.1,32.0,30.30,NNW,341,0.0,0.0,41,0.00,NA,NA,-99.99,,2013-02-21 03:50:00,
2013-02-20 22:55:00,37.9,32.0,30.30,NNW,341,0.0,0.0,41,0.00,NA,NA,-99.99,,2013-02-21 03:55:00,
2013-02-20 23:00:00,37.9,32.0,30.30,NNW,341,0.0,0.0,42,0.00,NA,NA,-99.99,,2013-02-21 04:00:00,
2013-02-20 23:05:00,37.9,32.0,30.30,NNW,341,0.0,0.0,42,0.00,NA,NA,-99.99,,2013-02-21 04:05:00,
2013-02-20 23:15:00,37.6,32.0,30.30,NNW,341,0.0,0.0,42,0.00,NA,NA,-99.99,,2013-02-21 04:15:00,
2013-02-20 23:25:00,37.6,32.0,30.30,NNW,341,0.0,0.0,43,0.00,NA,NA,-99.99,,2013-02-21 04:25:00,
2013-02-20 23:35:00,37.8,32.0,30.30,NNW,341,0.0,0.0,44,0.00,NA,NA,-99.99,,2013-02-21 04:35:00,
2013-02-20 23:40:00,37.8,32.0,30.30,NNW,341,0.0,0.0,44,0.00,NA,NA,-99.99,,2013-02-21 04:40:00,
2013-02-20 23:50:00,38.3,32.0,30.30,NNW,341,0.0,0.0,45,0.00,NA,NA,-99.99,,2013-02-21 04:50:00,
2013-02-20 23:55:00,38.5,32.0,30.30,NNW,341,0.0,0.0,46,0.00,NA,NA,-99.99,,2013-02-21 04:55:00,